Total_Precipitation_Accumulation
2.48 2.56 2.45 2.41 2.27 2.24 2.21 2.11 2.03 2.04 1.95 1.77 1.53 1.50 1.57 1.49 1.51 1.67 1.73 1.81 1.90 2.19 2.64 2.91 2.82 2.63 2.59 2.63 2.64 2.57 2.39 2.22 2.07 1.91 1.71 1.51 1.39 1.33 1.22 1.18 1.16 1.12 1.07
2.74 2.81 2.76 2.69 2.61 2.53 2.57 2.41 2.21 2.39 2.24 2.14 1.93 1.85 1.80 1.84 1.80 1.87 2.05 2.08 1.93 1.97 2.30 2.71 2.94 2.96 2.99 2.93 2.82 2.63 2.47 2.35 2.29 2.21 2.03 1.83 1.65 1.53 1.44 1.37 1.29 1.22 1.18
2.82 2.92 3.06 2.97 2.89 2.83 2.85 2.79 2.67 2.73 2.50 2.37 2.19 2.08 2.06 2.14 2.14 2.06 2.20 2.34 2.14 2.12 2.13 2.28 2.54 2.79 3.01 3.12 3.08 2.94 2.75 2.58 2.47 2.43 2.35 2.19 2.00 1.87 1.76 1.63 1.53 1.48 1.43
2.97 3.25 3.31 3.24 3.25 3.14 3.19 3.30 3.24 3.05 2.90 2.72 2.51 2.21 2.13 2.27 2.30 2.27 2.30 2.42 2.55 2.39 2.29 2.18 2.27 2.45 2.75 3.04 3.19 3.29 3.18 2.98 2.77 2.61 2.53 2.44 2.34 2.18 2.00 1.79 1.70 1.69 1.65
3.49 3.64 3.72 3.72 3.69 3.69 3.66 3.50 3.67 3.49 3.40 3.20 2.79 2.52 2.26 2.20 2.27 2.21 2.29 2.29 2.42 2.45 2.47 2.36 2.28 2.35 2.59 2.97 3.17 3.43 3.49 3.36 3.20 2.97 2.76 2.60 2.57 2.49 2.32 2.13 1.97 1.84 1.76
4.11 4.24 4.17 4.19 4.19 4.22 4.06 4.01 4.03 3.81 3.59 3.54 3.10 2.82 2.57 2.30 2.29 2.28 2.27 2.37 2.32 2.17 2.25 2.35 2.48 2.30 2.48 2.67 2.85 3.12 3.44 3.64 3.57 3.35 3.23 3.06 2.88 2.69 2.43 2.20 2.02 1.91 1.81
5.00 5.03 4.83 4.79 4.69 4.57 4.37 4.27 4.11 3.89 3.64 3.61 3.49 3.06 2.49 2.14 2.09 2.00 2.05 2.25 2.27 2.16 2.18 2.24 2.31 2.26 2.14 2.22 2.34 2.64 3.07 3.55 3.85 3.75 3.55 3.36 3.07 2.82 2.60 2.39 2.20 2.07 1.93
5.85 5.87 5.81 5.59 5.41 5.14 4.66 4.29 4.12 3.90 3.55 3.65 3.64 3.57 2.90 2.43 1.99 1.63 1.73 1.81 1.89 2.05 2.01 1.96 2.07 2.22 2.14 2.10 1.93 2.10 2.41 2.85 3.43 3.75 3.69 3.43 3.22 3.04 2.89 2.74 2.59 2.43 2.23
5.98 6.12 6.07 5.85 5.53 4.98 4.43 4.25 4.18 4.03 3.81 3.73 3.61 3.74 3.24 2.72 2.31 1.84 1.61 1.52 1.62 1.72 1.72 1.74 1.80 1.92 1.91 1.98 1.92 1.93 2.08 2.26 2.77 3.28 3.38 3.16 2.99 2.86 2.82 2.77 2.69 2.59 2.48
5.75 5.69 5.52 5.11 4.72 4.36 4.06 3.92 3.95 3.81 3.79 3.63 3.54 3.27 3.04 2.76 2.50 2.10 1.71 1.51 1.52 1.55 1.56 1.53 1.58 1.78 1.86 1.89 1.91 1.86 1.84 1.94 2.25 2.64 2.93 2.94 2.83 2.76 2.75 2.74 2.70 2.71 2.73
4.95 4.57 4.25 4.02 3.94 3.74 3.52 3.39 3.36 3.26 3.11 3.02 3.03 3.01 2.96 2.72 2.39 2.16 1.88 1.67 1.65 1.52 1.52 1.60 1.66 1.73 1.82 1.89 1.92 1.91 1.85 1.74 1.82 1.98 2.23 2.45 2.57 2.64 2.69 2.78 2.83 2.82 2.82
4.18 3.70 3.44 3.23 3.10 2.92 2.71 2.58 2.55 2.57 2.65 2.70 2.75 2.75 2.71 2.68 2.53 2.44 2.22 1.96 1.84 1.76 1.68 1.65 1.71 1.80 1.95 2.05 2.04 2.22 1.92 1.74 1.70 1.72 1.78 1.94 2.11 2.27 2.41 2.58 2.78 2.87 2.93
3.78 3.31 2.88 2.66 2.43 2.22 2.11 2.07 2.03 2.02 2.13 2.26 2.38 2.43 2.43 2.37 2.34 2.40 2.46 2.22 1.98 1.85 1.74 1.71 1.74 1.83 1.87 2.03 2.22 2.38 2.04 1.89 1.74 1.63 1.58 1.64 1.78 1.88 1.99 2.10 2.31 2.50 2.68
3.15 2.85 2.41 2.04 1.83 1.70 1.60 1.67 1.70 1.71 1.76 1.85 1.94 2.11 2.12 2.07 2.16 2.25 2.35 2.42 2.30 2.01 1.76 1.72 1.80 1.85 1.86 1.87 2.10 2.22 1.92 1.94 1.72 1.61 1.56 1.56 1.60 1.66 1.72 1.81 2.00 2.19 2.28
2.22 2.07 1.87 1.65 1.52 1.48 1.49 1.52 1.51 1.49 1.57 1.65 1.71 1.82 1.92 1.92 1.98 2.06 2.19 2.31 2.38 2.23 1.99 1.83 1.83 1.81 1.82 1.88 2.04 1.68 1.61 1.85 1.73 1.62 1.54 1.45 1.40 1.44 1.48 1.52 1.58 1.69 1.79
1.51 1.49 1.45 1.44 1.38 1.31 1.34 1.41 1.36 1.36 1.46 1.48 1.46 1.54 1.64 1.71 1.81 1.91 2.03 2.12 2.18 2.16 2.06 1.84 1.75 1.74 1.74 1.67 1.83 1.50 1.50 1.70 1.59 1.50 1.41 1.36 1.29 1.30 1.33 1.38 1.42 1.44 1.46
1.22 1.22 1.24 1.26 1.26 1.24 1.23 1.24 1.21 1.21 1.27 1.41 1.49 1.52 1.58 1.62 1.69 1.70 1.73 1.78 1.90 2.02 2.12 2.02 1.83 1.78 1.77 1.70 1.61 1.42 1.32 1.30 1.32 1.39 1.35 1.31 1.24 1.18 1.20 1.21 1.18 1.17 1.16
1.10 1.13 1.15 1.15 1.19 1.25 1.27 1.21 1.11 1.10 1.18 1.29 1.36 1.43 1.43 1.40 1.45 1.55 1.61 1.60 1.65 1.76 1.88 1.94 1.82 1.67 1.63 1.62 1.57 1.49 1.27 1.14 1.13 1.18 1.11 1.06 1.07 1.04 1.00 1.02 1.04 1.00 0.97
1.10 1.06 1.02 1.06 1.14 1.19 1.19 1.16 1.09 1.07 1.08 1.14 1.19 1.20 1.20 1.22 1.21 1.25 1.32 1.38 1.39 1.42 1.57 1.62 1.61 1.56 1.51 1.44 1.47 1.46 1.33 1.35 1.15 1.10 1.00 0.92 0.89 0.87 0.83 0.81 0.85 0.92 0.90
1.04 1.06 1.05 1.00 1.00 0.96 0.90 0.87 0.88 0.91 0.90 0.90 0.92 0.93 0.99 1.08 1.10 1.12 1.10 1.14 1.17 1.29 1.39 1.46 1.43 1.44 1.46 1.36 1.36 1.41 1.37 1.30 1.18 0.98 0.98 0.85 0.77 0.70 0.70 0.71 0.70 0.72 0.77
0.88 0.88 0.90 0.85 0.78 0.67 0.60 0.59 0.64 0.67 0.70 0.71 0.73 0.72 0.73 0.87 0.96 0.93 0.86 0.96 1.08 1.21 1.29 1.33 1.28 1.24 1.23 1.30 1.28 1.22 1.22 1.23 1.17 1.03 1.06 0.93 0.84 0.78 0.79 0.77 0.73 0.68 0.70
0.92 0.82 0.77 0.75 0.68 0.53 0.52 0.50 0.55 0.64 0.71 0.70 0.72 0.73 0.67 0.71 0.75 0.72 0.71 0.83 0.99 1.03 1.09 1.20 1.21 1.22 1.22 1.23 1.20 1.18 1.25 1.31 1.33 1.12 1.08 1.01 0.90 0.91 0.87 0.82 0.77 0.69 0.65
1.00 0.96 0.85 0.78 0.75 0.66 0.54 0.46 0.50 0.62 0.71 0.72 0.71 0.70 0.61 0.58 0.65 0.66 0.67 0.71 0.78 0.79 0.88 1.06 1.19 1.18 1.20 1.27 1.30 1.25 1.33 1.38 1.35 1.25 1.28 1.21 1.02 0.92 0.73 0.66 0.69 0.62 0.61
0.97 0.94 0.88 0.80 0.72 0.56 0.41 0.36 0.37 0.51 0.66 0.70 0.69 0.69 0.70 0.66 0.62 0.63 0.62 0.65 0.74 0.80 0.81 0.86 1.07 1.08 1.06 1.16 1.25 1.31 1.39 1.40 1.37 1.32 1.37 1.37 1.08 0.98 0.80 0.80 0.73 0.59 0.57
0.85 0.81 0.74 0.69 0.68 0.54 0.35 0.29 0.33 0.51 0.67 0.66 0.62 0.57 0.59 0.63 0.62 0.61 0.65 0.77 0.83 0.88 0.74 0.75 0.85 0.94 0.97 1.04 1.07 1.17 1.38 1.54 1.49 1.30 1.27 1.36 1.16 1.05 0.93 0.90 0.80 0.70 0.60
0.77 0.69 0.61 0.63 0.65 0.60 0.44 0.37 0.39 0.50 0.61 0.60 0.61 0.58 0.53 0.53 0.54 0.56 0.65 0.79 0.86 0.86 0.79 0.79 0.96 1.06 1.05 1.13 1.12 1.19 1.41 1.51 1.45 1.41 1.24 1.28 1.25 1.24 1.18 0.94 0.85 0.79 0.73